Flag for U.S.A. Weather past 2 weeks in Colorado Springs, Colorado, U.S.A.

Now
71 °F

Partly sunny.


Feels Like: 77 °F
Forecast: 54 / 74 °F
Wind: 20 mph from Southeast

Location: City Of Colorado Springs Municipal Airport

Current Time: Jul 29, 2015 at 12:37:50 PM

Latest Report: Jul 29, 2015 at 11:54 AM


Visibility: 10 mi

Pressure: 30.19 "Hg (24.42 "Hg at 1831m altitude)

Humidity: 44%

Dew point: 48 °F

Location of Colorado SpringsLocation

Historic Weather in Colorado Springs — Graph

°F

Colorado Springs temperature yesterday

Maximum temperature yesterday: 84 °F (at 2:54 PM)
Minimum temperature yesterday: 60 °F (at 5:54 AM)
Average temperature yesterday: 73 °F

Past Weeks' High & Low Weather Summary

 TemperatureHumidityPressure
High89 °F (Jul 23, 2:54 PM)93% (Jul 22, 4:54 AM)30.43 "Hg (Jul 22, 4:54 AM)
Low54 °F (Jul 16, 5:54 AM)14% (Jul 17, 10:54 AM)29.66 "Hg (Jul 27, 5:54 PM)
Average72 °F49%29.90 "Hg
* Reported Jul 14 10:54 AM — Jul 29 10:59 AM, Colorado Springs, Weather by CustomWeather, © 2015

Note: Actual official high and low records may vary slightly from our data, if they occured in-between our weather recording intervals... More about our weather records

Advertising

Colorado Springs weather history for previous 24 hours

 ConditionsComfort  
Time TempWeatherWind HumidityBarometerVisibility
10:59 AM
Wed, Jul 29
73 °FBroken clouds.17 mph44%30.43 "Hg10 mi
9:54 AM68 °FScattered clouds.7 mph49%30.17 "Hg10 mi
8:54 AM67 °FScattered clouds.No wind47%30.16 "Hg10 mi
7:54 AM64 °FPartly sunny.No wind54%30.15 "Hg10 mi
6:54 AM61 °FPassing clouds.5 mph62%30.14 "Hg10 mi
5:54 AM59 °FPassing clouds.No wind62%30.13 "Hg10 mi
4:54 AM57 °FPartly cloudy.3 mph62%30.13 "Hg10 mi
3:54 AM58 °FPartly cloudy.No wind60%30.13 "Hg10 mi
2:54 AM61 °FPassing clouds.No wind50%30.11 "Hg10 mi
1:54 AM64 °FPassing clouds.5 mph45%30.09 "Hg10 mi
12:54 AM65 °FPartly cloudy.3 mph42%30.08 "Hg10 mi
11:54 PM
Tue, Jul 28
65 °FPassing clouds.No wind44%30.09 "Hg10 mi
10:54 PM64 °FPassing clouds.6 mph47%30.10 "Hg10 mi
9:54 PM67 °FPassing clouds.8 mph41%30.07 "Hg10 mi
8:54 PM70 °FScattered clouds.13 mph35%30.01 "Hg10 mi
7:54 PM75 °FScattered clouds.14 mph26%29.98 "Hg10 mi
6:54 PM81 °FScattered clouds.17 mph21%29.94 "Hg10 mi
5:54 PM83 °FPassing clouds.18 mph18%29.92 "Hg10 mi
4:54 PM84 °FPassing clouds.15 mph17%29.90 "Hg10 mi
3:54 PM84 °FPassing clouds.17 mph17%29.88 "Hg10 mi
2:54 PM84 °FPassing clouds.20 mph17%29.89 "Hg10 mi
1:54 PM82 °FPassing clouds.21 mph20%29.90 "Hg10 mi
12:54 PM81 °FPassing clouds.18 mph23%29.91 "Hg10 mi
Weather by CustomWeather, © 2015

See weather overviewHow to use our weather pages